EW6448 Weather Reports


time (UTC)temp
C
wind
direction
speed
KPH
gust
KPH
rain 1hr
cm
rain 24hr
cm
rain mn
cm
humidity
%
barometer
mb
20260504213123 24 287 0.0 4.8 0.00 0.00 0.00 44 1012.9
20260504211558 24 291 0.0 0.0 0.00 0.00 0.00 42 1013.0
20260504210058 24 294 1.6 6.4 0.00 0.00 0.00 42 1013.2
20260504204553 23 282 0.0 6.4 0.00 0.00 0.00 43 1013.4
20260504203053 23 283 0.0 0.0 0.00 0.00 0.00 43 1013.5
20260504201600 23 274 0.0 1.6 0.00 0.00 0.00 42 1013.8
20260504200046 23 272 0.0 0.0 0.00 0.00 0.00 48 1013.9
20260504194548 23 293 0.0 1.6 0.00 0.00 0.00 46 1014.3
20260504193039 23 266 1.6 6.4 0.00 0.00 0.00 49 1014.7
20260504191539 23 280 0.0 1.6 0.00 0.00 0.00 49 1014.9
20260504190032 22 279 1.6 8.0 0.00 0.00 0.00 45 1015.2
20260504184533 22 295 0.0 3.2 0.00 0.00 0.00 47 1015.5
20260504183026 22 295 0.0 1.6 0.00 0.00 0.00 46 1015.7
20260504181530 21 295 0.0 4.8 0.00 0.00 0.00 48 1015.9
20260504180019 21 290 0.0 1.6 0.00 0.00 0.00 50 1016.2
20260504174515 20 291 0.0 11.3 0.00 0.00 0.00 51 1016.2
20260504173012 20 270 0.0 6.4 0.00 0.00 0.00 50 1016.4
20260504171510 19 275 0.0 1.6 0.00 0.00 0.00 52 1016.7
20260504110112 5 282 0.0 0.0 0.00 0.00 0.00 35 1017.9
20260504081547 6 282 0.0 0.0 0.00 0.00 0.00 36 1018.7
20260504050019 7 282 0.0 0.0 0.00 0.00 0.00 67 1018.6
20260504044517 8 282 0.0 0.0 0.00 0.00 0.00 67 1018.7
20260504043015 8 282 0.0 0.0 0.00 0.00 0.00 70 1018.6
20260504041513 8 282 0.0 0.0 0.00 0.00 0.00 70 1018.4
20260504040011 8 282 0.0 0.0 0.00 0.00 0.00 70 1018.5
20260504034519 8 282 0.0 0.0 0.00 0.00 0.00 70 1018.6
20260504033020 8 282 0.0 0.0 0.00 0.00 0.00 70 1018.5
20260504031508 8 282 0.0 0.0 0.00 0.00 0.00 69 1018.3
20260504030002 8 282 0.0 0.0 0.00 0.00 0.00 70 1018.3
20260504024602 9 282 0.0 0.0 0.00 0.00 0.00 70 1018.3
20260504023053 9 282 0.0 0.0 0.00 0.00 0.00 68 1018.2
20260504021552 10 282 0.0 0.0 0.00 0.00 0.00 68 1018.3
20260504020048 10 282 0.0 0.0 0.00 0.00 0.00 69 1018.0
20260504014540 10 282 0.0 0.0 0.00 0.00 0.00 68 1018.1
20260504013043 11 282 0.0 0.0 0.00 0.00 0.00 66 1018.2
20260504011530 11 282 0.0 0.0 0.00 0.00 0.00 59 1018.1
20260504010028 12 282 0.0 0.0 0.00 0.00 0.00 59 1017.8
20260504004537 13 282 0.0 0.0 0.00 0.00 0.00 49 1017.7
20260504003016 13 282 0.0 0.0 0.00 0.00 0.00 48 1017.4
20260504001512 15 282 0.0 0.0 0.00 0.00 0.00 46 1017.3
20260504000007 16 282 0.0 0.0 0.00 0.00 0.00 42 1017.5
20260503234503 16 282 0.0 0.0 0.00 0.00 0.00 43 1017.3
20260503233058 16 287 0.0 0.0 0.00 0.00 0.00 44 1017.5
20260503231556 16 287 0.0 0.0 0.00 0.00 0.00 43 1017.5
20260503230052 16 287 0.0 0.0 0.00 0.00 0.00 44 1017.5
20260503224545 16 282 0.0 0.0 0.00 0.00 0.00 38 1017.7
20260503223041 17 284 0.0 0.0 0.00 0.00 0.00 36 1017.8
20260503221536 17 301 0.0 0.0 0.00 0.00 0.00 35 1017.9
20260503220034 17 297 0.0 0.0 0.00 0.00 0.00 36 1018.0
20260503214527 17 290 0.0 0.0 0.00 0.00 0.00 38 1018.1